Regional Weather Roundup
Issued by NWS

Home | Current Version | Previous Version | Text Only | Print | Product List | Glossary On
Versions: 1 2 3 4 5 6 7 8 9 10 11 12 13 14 15 16 17 18 19 20 21 22 23 24 25 26 27 28 29 30 31 32 33 34 35 36 37 38 39 40 41 42 43 44 45 46 47 48 49 50
000
ASUS44 KFWD 031315
RWRTX
NORTH TEXAS HOURLY WEATHER ROUNDUP
NATIONAL WEATHER SERVICE FORT WORTH TX
800 AM CDT WED JUN 03 2015

NOTE: "FAIR" INDICATES FEW OR NO CLOUDS BELOW 12,000 FEET WITH NO
SIGNIFICANT WEATHER AND/OR OBSTRUCTIONS TO VISIBILITY.

TXZ118-119-031400-
DALLAS/FORT WORTH METROPLEX

CITY           SKY/WX    TMP DP  RH WIND       PRES   REMARKS
DFW AIRPORT    SUNNY     73  64  73 S8        29.93S
DALLAS LOVE    SUNNY     75  65  70 SE12      29.95R
FTW MEACHAM    SUNNY     74  65  73 SE8       29.93S
DAL-EXECUTIVE  SUNNY     72  65  78 SE7       29.95R
FTW-ALLIANCE   SUNNY     73  64  73 S10       29.93S
FTW-NAS-JRB    SUNNY     75  65  70 S9        29.94R
FTW-SPINKS     SUNNY     73  64  73 CALM      29.96R
ARLINGTON      SUNNY     73  64  73 S7        29.95R
GRAND PRAIRIE  SUNNY     73  64  73 S7        29.96R
ADDISON        SUNNY     73  64  73 SE12      29.97R
MESQUITE       SUNNY     72  64  78 SE8       29.96R
LANCASTER      SUNNY     70  65  82 SE3       29.96R
$$

TXZ091>094-102>105-117-120-121-131>134-031400-
NORTH CENTRAL TEXAS

CITY           SKY/WX    TMP DP  RH WIND       PRES   REMARKS
SHRMAN/DENISON SUNNY     73  66  78 S10       29.96S
GAINESVILLE    SUNNY     71  66  85 SE8       29.97R
BOWIE          SUNNY     69  64  83 SE7       29.94R
BRIDGEPORT     SUNNY     71  66  84 CALM      29.95R
DECATUR        SUNNY     71  61  71 SE8       29.95R
DENTON         SUNNY     72  65  78 SE8       29.94R
MCKINNEY       SUNNY     73  66  78 S6        29.96R
GREENVILLE     SUNNY     72  63  73 SE7       29.97S
ROCKWALL       SUNNY     72  65  77 S8        29.95R
TERRELL          N/A    N/A N/A N/A MISG      29.97R
WAXAHACHIE     SUNNY     71  66  86 SE6       29.96S
CLEBURNE       SUNNY     72  68  88 S8        29.96S
GRANBURY       SUNNY     73  66  79 E5        29.95R
$$

TXZ083>090-098>101-113>116-127>130-139>142-154-155-031400-
WESTERN NORTH TEXAS

CITY           SKY/WX    TMP DP  RH WIND       PRES   REMARKS
WICHITA FALLS  SUNNY     72  66  81 S12       29.91R
WF-KICKAPOO    SUNNY     73  66  79 SE9       29.92S
VERNON         SUNNY     72  62  71 S9        29.91R
ABILENE        SUNNY     72  63  73 S13       29.92S
ABILENE-DYESS  SUNNY     73  62  68 S16       29.90S
BRECKENRIDGE   SUNNY     73  64  74 S8        29.92S
GRAHAM         SUNNY     72  67  85 SE3       29.92R
MINERAL WELLS  SUNNY     70  65  84 SE8       29.92R
STEPHENVILLE   SUNNY     68  64  87 S3        29.97S
COMANCHE       SUNNY     71  67  89 S5        29.95R
BROWNWOOD      SUNNY     70  64  83 S8        29.95S
COLEMAN        SUNNY     69  66  88 S8        29.95S
BRADY          SUNNY     70  68  94 S7        29.95R
$$

TXZ143>147-156>162-174-175-031400-
CENTRAL TEXAS

CITY           SKY/WX    TMP DP  RH WIND       PRES   REMARKS
WACO           SUNNY     74  66  76 S7        29.94S
WACO-TSTC      SUNNY     72  66  83 SE6       29.95
WACO-MCGREGOR  SUNNY     72  66  83 S7        29.95F
HILLSBORO      SUNNY     73  64  72 SE6       29.95S
CORSICANA      SUNNY     74  66  76 SE8       29.97R
MEXIA          SUNNY     70  66  87 E10       29.95R
HEARNE         SUNNY     71  68  88 CALM      29.97R
CAMERON        SUNNY     73  68  84 S5        29.95R
TEMPLE         MOSUNNY   72  64  78 SE5       29.95S
KILLEEN        SUNNY     72  67  84 S6        29.95R
KILLEEN-SKYLRK SUNNY     73  64  73 SE5       29.96R
FORT HOOD      SUNNY     72  66  82 SE3       29.94S
GATESVILLE     SUNNY     72  66  83 SE3       29.97S
HAMILTON       SUNNY     71  68  90 S8        29.97R
LAMPASAS       SUNNY     71  67  89 CALM      29.95S
$$

TXZ095>097-106>112-122>126-135>138-148>153-164>167-031400-
EAST TEXAS

CITY           SKY/WX    TMP DP  RH WIND       PRES   REMARKS
PARIS          SUNNY     70  63  78 SE8       29.98S
SULPHUR SPRNGS SUNNY     73  64  71 S10       29.99S
MOUNT PLEASANT SUNNY     70  66  88 SE5       30.00R
GILMER         SUNNY    N/A N/A N/A SE3       29.98S
MINEOLA        SUNNY     72  66  83 SE5       29.98S FOG
TYLER          SUNNY     73  64  73 SE8       29.98R
LONGVIEW       SUNNY     72  66  81 SE5       29.97S
MARSHALL       SUNNY     72  67  85 S3        30.01S
ATHENS         PTSUNNY   70  64  83 SE5       29.96S
PALESTINE      SUNNY     72  66  83 SE6       29.98S
JACKSONVILLE   SUNNY     73  64  73 SE5       30.01R
HENDERSON      SUNNY     71  64  80 MISG      29.99S
NACOGDOCHES    SUNNY     72  64  78 E6        29.98R
LUFKIN         SUNNY     74  66  76 CALM      29.98R
$$

SUPPLEMENTAL OBSERVATIONS (CENTRAL)

CITY           SKY/WX    TMP DP  RH WIND       PRES   REMARKS
LAKE TEXOMA      N/A     73  64  73 SE6         N/A
CADDO GRASSLND   N/A     72  64  78 S5          N/A
PAT MAYSE LAKE   N/A     70  66  88 E7          N/A
GREENVILLE       N/A     73  64  73 SE6         N/A
CEDAR HILL       N/A     75  64  69 SE8         N/A
ATHENS           N/A     73  63  68 SE7         N/A
LAKE LIMESTONE   N/A     73  66  78 CALM        N/A
MCGREGOR         N/A     73  66  78 S7          N/A
TEMPLE           N/A     73  68  83 SE5         N/A
$$

SUPPLEMENTAL OBSERVATIONS (WEST)

CITY           SKY/WX    TMP DP  RH WIND       PRES   REMARKS
MILLERS CREEK    N/A     73  64  73 S8          N/A
POSSUM KINGDOM   N/A     73  64  73 SE8         N/A
LBJ GRASSLAND    N/A     73  64  73 SE9         N/A
GRANBURY         N/A     73  66  78 SE6         N/A
COMANCHE         N/A     72  64  78 S8          N/A
HAMBY            N/A     73  63  68 S13         N/A
IVIE RESERVOIR   N/A     72  64  78 SE7         N/A
COLORADO BEND    N/A     72  66  83 SW6         N/A
$$

SUPPLEMENTAL OBSERVATIONS (EAST)

CITY           SKY/WX    TMP DP  RH WIND       PRES   REMARKS
CLARKSVILLE      N/A     72  68  88 SE7         N/A
TEXARKANA        N/A     72  66  83 SE3         N/A
LINDEN           N/A     72  66  83 SE1         N/A
CADDO LAKE       N/A     72  68  88 E2          N/A
GILMER           N/A     72  64  78 SE5         N/A
HENDERSON        N/A     72  63  73 SE5         N/A
LUFKIN           N/A     73  68  83 MISG        N/A
N SABINE NF      N/A     66  64  94 MISG        N/A
S SABINE NF      N/A     75  68  78 CALM        N/A
$$

SUPPLEMENTAL OBSERVATIONS ARE A COLLECTION OF AUTOMATED INSTRUMENTS
THAT ARE MAINTAINED BY A VARIETY OF FEDERAL AND STATE AGENCIES.
CERTAIN ELEMENTS...SUCH AS HUMIDITY VALUES AND SUSTAINED WIND
SPEEDS...MAY BE APPROXIMATED.



USA.gov is the U.S. government's official web portal to all federal, state and local government web resources and services.